This demonstration page uses our WeatherBlox Daily Observations layout. Learn more.

Left ArrowRight Arrow

Hourly Observations for December 18, 2016

Temp ( °F °C ) Dew Point ( °F °C ) Humidity (%) Winds ( mph kmh ) Pressure ( in mb ) Visibility ( mi km ) Precip ( " mm )
12:20 am 00:20 Cloudy 27 -3 25 -4 93 93 WNW 16 26 29.85 1011 4 6 N/A
12:39 am 00:39 Cloudy 25 -4 23 -5 93 93 NW 12 19 29.83 1010 4 6 N/A
12:59 am 00:59 Cloudy 23 -5 23 -5 100 100 NW 14 22 29.85 1011 5 8 N/A
1:20 am 01:20 Cloudy 23 -5 21 -6 93 93 NW 6 9 29.85 1011 3 4 N/A
1:39 am 01:39 Cloudy 23 -5 21 -6 93 93 WNW 15 24 29.88 1012 2 3 N/A
1:59 am 01:59 Cloudy 23 -5 19 -7 86 86 WNW 15 24 29.88 1012 7 11 N/A
2:20 am 02:20 Cloudy 21 -6 19 -7 93 93 WNW 16 26 29.91 1013 7 11 N/A
2:39 am 02:39 Cloudy 21 -6 19 -7 93 93 WNW 13 20 29.88 1012 7 11 N/A
2:59 am 02:59 Cloudy 21 -6 18 -8 86 86 WNW 15 24 29.91 1013 10 16 N/A
3:20 am 03:20 Cloudy 21 -6 18 -8 86 86 WNW 18 30 29.94 1014 10 16 N/A
3:39 am 03:39 Cloudy 21 -6 18 -8 86 86 WNW 18 30 29.97 1015 10 16 N/A
3:59 am 03:59 Cloudy 21 -6 18 -8 86 86 WNW 21 33 30.03 1017 10 16 N/A
4:20 am 04:20 Cloudy 21 -6 18 -8 86 86 WNW 20 31 30.03 1017 10 16 N/A
4:39 am 04:39 Cloudy 21 -6 18 -8 86 86 WNW 20 31 30.06 1018 10 16 N/A
5:00 am 05:00 Cloudy 21 -6 18 -8 86 86 WNW 21 33 30.06 1018 10 16 N/A
5:20 am 05:20 Cloudy 21 -6 18 -8 86 86 WNW 20 31 30.06 1018 10 16 N/A
5:39 am 05:39 Cloudy 21 -6 18 -8 86 86 WNW 20 31 30.12 1020 10 16 N/A
6:00 am 06:00 Cloudy 21 -6 18 -8 86 86 WNW 21 33 30.12 1020 10 16 N/A
6:20 am 06:20 Cloudy 21 -6 18 -8 86 86 WNW 20 31 30.15 1021 7 11 N/A
6:39 am 06:39 Cloudy 21 -6 18 -8 86 86 WNW 18 30 30.18 1022 5 8 N/A
7:00 am 07:00 Cloudy 19 -7 16 -9 86 86 NW 14 22 30.18 1022 5 8 N/A
7:19 am 07:19 Cloudy 19 -7 16 -9 86 86 WNW 17 28 30.21 1023 5 8 N/A
7:39 am 07:39 Cloudy 19 -7 16 -9 86 86 WNW 21 33 30.24 1024 7 11 N/A
8:00 am 08:00 Cloudy 19 -7 14 -10 79 79 WNW 17 28 30.27 1025 10 16 N/A
8:19 am 08:19 Cloudy 18 -8 14 -10 86 86 WNW 15 24 30.27 1025 10 16 N/A
8:39 am 08:39 Cloudy 18 -8 14 -10 86 86 WNW 15 24 30.27 1025 10 16 N/A
9:00 am 09:00 Cloudy 18 -8 14 -10 86 86 WNW 16 26 30.30 1026 10 16 N/A
9:19 am 09:19 Cloudy 18 -8 14 -10 86 86 WNW 14 22 30.33 1027 5 8 N/A
9:39 am 09:39 Cloudy 18 -8 14 -10 86 86 WNW 16 26 30.33 1027 5 8 N/A
10:00 am 10:00 Cloudy 18 -8 12 -11 79 79 W 17 28 30.36 1028 3 5 N/A
10:19 am 10:19 Cloudy 16 -9 12 -11 86 86 WNW 15 24 30.39 1029 7 11 N/A
10:39 am 10:39 Cloudy 16 -9 12 -11 86 86 WNW 15 24 30.39 1029 10 16 N/A
11:00 am 11:00 Cloudy 16 -9 12 -11 86 86 WNW 16 26 30.42 1030 10 16 N/A
11:19 am 11:19 Cloudy 18 -8 12 -11 79 79 WNW 17 28 30.42 1030 7 11 N/A
11:40 am 11:40 Cloudy 16 -9 10 -12 79 79 WNW 13 20 30.45 1031 10 16 N/A
12:00 pm 12:00 Cloudy 18 -8 12 -11 79 79 WNW 13 20 30.45 1031 7 11 N/A
12:19 pm 12:19 Cloudy 16 -9 10 -12 79 79 WNW 13 20 30.48 1032 10 16 N/A
12:40 pm 12:40 Cloudy 18 -8 12 -11 79 79 WNW 10 17 30.48 1032 7 11 N/A
1:00 pm 13:00 Cloudy 18 -8 12 -11 79 79 NNW 8 13 30.48 1032 10 16 N/A
1:19 pm 13:19 Cloudy 18 -8 12 -11 79 79 WNW 13 20 30.48 1032 7 11 N/A
1:40 pm 13:40 Cloudy 18 -8 12 -11 79 79 NW 9 15 30.48 1032 10 16 N/A
1:59 pm 13:59 Cloudy 18 -8 12 -11 79 79 WNW 10 17 30.50 1033 5 8 N/A
2:19 pm 14:19 Cloudy 18 -8 12 -11 79 79 NW 10 17 30.50 1033 7 11 N/A
2:40 pm 14:40 Cloudy 16 -9 10 -12 79 79 NW 12 19 30.50 1033 7 11 N/A
2:59 pm 14:59 Cloudy 16 -9 10 -12 79 79 WNW 9 15 30.50 1033 7 11 N/A
3:19 pm 15:19 Cloudy 16 -9 9 -13 73 73 NW 10 17 30.53 1034 10 16 N/A
3:39 pm 15:39 Cloudy 18 -8 9 -13 68 68 NW 9 15 30.53 1034 10 16 N/A
3:59 pm 15:59 Mostly Cloudy 18 -8 9 -13 68 68 WNW 10 17 30.53 1034 10 16 N/A
4:20 pm 16:20 Sunny 16 -9 9 -13 73 73 NW 9 15 30.59 1036 10 16 N/A
4:39 pm 16:39 Sunny 16 -9 9 -13 73 73 NW 8 13 30.59 1036 10 16 N/A
4:59 pm 16:59 Sunny 14 -10 7 -14 73 73 NW 8 13 30.62 1037 10 16 N/A
5:20 pm 17:20 Sunny 14 -10 7 -14 73 73 NW 8 13 30.62 1037 10 16 N/A
5:39 pm 17:39 Clear 12 -11 7 -14 79 79 NW 7 11 30.62 1037 10 16 N/A
5:59 pm 17:59 Clear 12 -11 7 -14 79 79 NW 8 13 30.62 1037 10 16 N/A
6:20 pm 18:20 Clear 12 -11 5 -15 73 73 NW 9 15 30.65 1038 10 16 N/A
6:39 pm 18:39 Clear 12 -11 5 -15 73 73 NW 7 11 30.65 1038 10 16 N/A
6:59 pm 18:59 Clear 10 -12 5 -15 79 79 NW 8 13 30.68 1039 10 16 N/A
7:20 pm 19:20 Clear 10 -12 5 -15 79 79 NW 9 15 30.68 1039 10 16 N/A
7:39 pm 19:39 Clear 10 -12 5 -15 79 79 NW 8 13 30.71 1040 10 16 N/A
7:59 pm 19:59 Clear 9 -13 5 -15 85 85 NW 8 13 30.71 1040 10 16 N/A
8:20 pm 20:20 Clear 9 -13 5 -15 85 85 NW 8 13 30.71 1040 10 16 N/A
8:39 pm 20:39 Clear 9 -13 5 -15 85 85 NW 9 15 30.71 1040 10 16 N/A
8:59 pm 20:59 Clear 9 -13 5 -15 85 85 NW 6 9 30.74 1041 10 16 N/A
9:19 pm 21:19 Clear 9 -13 3 -16 78 78 NW 10 17 30.74 1041 10 16 N/A
9:39 pm 21:39 Clear 7 -14 3 -16 85 85 NW 9 15 30.74 1041 10 16 N/A
10:00 pm 22:00 Clear 7 -14 3 -16 85 85 NW 8 13 30.74 1041 10 16 N/A
10:19 pm 22:19 Clear 7 -14 3 -16 85 85 NW 7 11 30.74 1041 10 16 N/A
10:39 pm 22:39 Clear 7 -14 1 -17 78 78 NW 7 11 30.74 1041 10 16 N/A
10:59 pm 22:59 Clear 5 -15 1 -17 85 85 NW 7 11 30.80 1043 10 16 N/A
11:19 pm 23:19 Clear 5 -15 1 -17 85 85 NW 8 13 30.80 1043 10 16 N/A
11:39 pm 23:39 Clear 5 -15 N/A 78 78 NW 7 11 30.80 1043 10 16 N/A

Powered by AerisWeather